Location: Joplin, MO
(37.0842°N, 94.5133°W)
Time: 20:23:32
(UTC+02:00)

Courier 1B Rocket - Pass Details

Date: 06 April 2023
Orbit: 920 x 1202 km, 28.2° (Epoch: 08 June)

Event Time Altitude Azimuth Distance (km) Brightness Sun altitude
Rises 04:58:12 0° 264° (W) 3,993 9.0 -25.9°
Reaches altitude 10° 05:01:59 10° 247° (WSW) 2,981 7.9 -26.5°
Maximum altitude 05:06:47 19° 206° (SSW) 2,322 6.9 -27.3°
Enters shadow 05:07:39 18° 197° (SSW) 2,332 6.8 -27.5°
Drops below altitude 10° 05:11:23 10° 164° (SSE) 2,836 - -28.1°
Sets 05:14:52 0° 147° (SSE) 3,731 - -28.7°
